Scottsboro, AL

5:13 PM CDT on September 30, 2016 (GMT -0500)
Scottsboro

Weather History for K4A6 - January, 2014

Change the Weather History Date:

Monday, January 6, 2014

  Actual Average (KHSV) Record (KHSV)
Temperature  
Mean Temperature 17 °F 41 °F  
Max Temperature 26 °F 51 °F 72 °F (1946)
Min Temperature 8 °F 32 °F 8 °F (2014)
Degree Days  
Heating Degree Days 48 24  
Month to date heating degree days 144  
Since 1 July heating degree days 1325  
Cooling Degree Days 0 0  
Month to date cooling degree days 0  
Year to date cooling degree days 0  
Moisture  
Dew Point 5 °F    
Average Humidity 61    
Maximum Humidity 86    
Minimum Humidity 41    
Precipitation  
Precipitation 0.00 in 0.16 in 2.69 in (2009)
Month to date precipitation 0.97  
Year to date precipitation 0.97  
Snow  
Snow 0.00 in - - ()
Month to date snowfall  
Since 1 July snowfall  
Snow Depth -    
Sea Level Pressure  
Sea Level Pressure 30.33 in    
Wind  
Wind Speed 11 mph (NW)    
Max Wind Speed 16 mph    
Max Gust Speed 29 mph    
Visibility 9 miles    
Events Rain , Snow    
T = Trace of Precipitation, MM = Missing Value Source: NWS Daily Summary

Daily Weather History Graph

Daily Weather History Graph

Search for Another Location

Airport or City:

Trip Planner

Search our weather history database for the weather conditions in past years. The results will help you decide how hot, cold, wet, or windy it might be!

Date:

Astronomy

Jan. 06, 2014 Rise Set
Actual Time 6:51 AM CST 4:48 PM CST
Civil Twilight 6:24 AM CST 5:16 PM CST
Nautical Twilight 5:52 AM CST 5:47 PM CST
Astronomical Twilight 5:22 AM CST 6:17 PM CST
Moon 10:22 AM CST (1/6) 11:03 PM CST (1/6)
Length of Visible Light 10h 52m
Length of Day
9h 56m
Waxing Crescent, 35% of the Moon is Illuminated
Jan 6
Waxing Crescent
Jan 7
First Quarter
Jan 15
Full
Jan 23
Last Quarter
Jan 30
New

Hourly Weather History & Observations

Time (CST) Temp. Windchill Dew Point Humidity Pressure Visibility Wind Dir Wind Speed Gust Speed Precip Events Conditions
12:15 AM 26.6 °F 15.2 °F 23.0 °F 86% 30.03 in 10.0 mi NW 13.8 mph 24.2 mph N/A Rain Light Freezing Rain
12:35 AM 26.6 °F 14.3 °F 21.2 °F 80% 30.05 in 10.0 mi NNW 16.1 mph 28.8 mph N/A   Mostly Cloudy
12:55 AM 24.8 °F 12.9 °F 21.2 °F 86% 30.07 in 10.0 mi NNW 13.8 mph 25.3 mph N/A Rain Light Freezing Rain
1:15 AM 24.8 °F 14.6 °F 19.4 °F 80% 30.08 in 10.0 mi NNW 10.4 mph 20.7 mph N/A   Overcast
1:35 AM 24.8 °F 12.9 °F 19.4 °F 80% 30.09 in 8.0 mi North 13.8 mph 19.6 mph N/A Rain Light Freezing Rain
1:55 AM 24.8 °F 13.4 °F 17.6 °F 74% 30.10 in 9.0 mi North 12.7 mph 24.2 mph N/A Rain Light Freezing Rain
2:15 AM 24.8 °F 15.3 °F 17.6 °F 74% 30.12 in 10.0 mi NNW 9.2 mph 24.2 mph N/A Rain Light Freezing Rain
2:35 AM 23.0 °F 10.6 °F 17.6 °F 80% 30.13 in 10.0 mi NNW 13.8 mph 21.9 mph N/A   Overcast
2:55 AM 23.0 °F 12.4 °F 15.8 °F 74% 30.14 in 10.0 mi North 10.4 mph 25.3 mph N/A   Overcast
3:15 AM 23.0 °F 12.4 °F 17.6 °F 80% 30.15 in 8.0 mi NNW 10.4 mph 17.3 mph N/A Rain Light Freezing Rain
3:35 AM 23.0 °F 13.1 °F 17.6 °F 80% 30.15 in 4.0 mi NNW 9.2 mph 16.1 mph N/A Snow Light Snow
3:55 AM 23.0 °F 12.4 °F 15.8 °F 74% 30.17 in 10.0 mi NNW 10.4 mph 26.5 mph N/A Rain Light Freezing Rain
4:15 AM 23.0 °F 11.1 °F 15.8 °F 74% 30.17 in 10.0 mi North 12.7 mph 17.3 mph N/A   Mostly Cloudy
4:35 AM 23.0 °F 13.1 °F 15.8 °F 74% 30.19 in 10.0 mi North 9.2 mph - N/A   Mostly Cloudy
4:55 AM 23.0 °F 10.6 °F 14.0 °F 68% 30.20 in 10.0 mi NNW 13.8 mph 23.0 mph N/A   Overcast
5:15 AM 23.0 °F 12.4 °F 14.0 °F 68% 30.21 in 10.0 mi North 10.4 mph 18.4 mph N/A Rain Light Freezing Rain
5:35 AM 21.2 °F 10.9 °F 14.0 °F 74% 30.22 in 8.0 mi NNW 9.2 mph - N/A Snow Light Snow
5:55 AM 21.2 °F 10.1 °F 14.0 °F 74% 30.23 in 5.0 mi NNW 10.4 mph 19.6 mph N/A Snow Light Snow
6:15 AM 19.4 °F 6.0 °F 12.2 °F 74% 30.24 in 9.0 mi NW 13.8 mph 19.6 mph N/A Snow Light Snow
6:35 AM 19.4 °F 7.9 °F 10.4 °F 68% 30.25 in 10.0 mi NNW 10.4 mph 20.7 mph N/A Snow Light Snow
6:55 AM 17.6 °F 5.0 °F 8.6 °F 68% 30.27 in 10.0 mi North 11.5 mph 16.1 mph N/A   Mostly Cloudy
7:15 AM 15.8 °F 2.1 °F 5.0 °F 62% 30.28 in 10.0 mi NNW 12.7 mph 20.7 mph N/A   Mostly Cloudy
7:35 AM 15.8 °F 5.1 °F 5.0 °F 62% 30.29 in 10.0 mi NNW 8.1 mph - N/A   Mostly Cloudy
7:55 AM 15.8 °F 2.1 °F 5.0 °F 62% 30.31 in 10.0 mi North 12.7 mph 20.7 mph N/A   Overcast
8:15 AM 15.8 °F 2.7 °F 5.0 °F 62% 30.32 in 10.0 mi NNW 11.5 mph 19.6 mph N/A   Mostly Cloudy
8:35 AM 15.8 °F 4.2 °F 5.0 °F 62% 30.31 in 10.0 mi North 9.2 mph 19.6 mph N/A Rain Light Freezing Rain
8:55 AM 15.8 °F 5.1 °F 5.0 °F 62% 30.33 in 10.0 mi North 8.1 mph - N/A Snow Light Snow
9:15 AM 15.8 °F 2.7 °F 6.8 °F 68% 30.35 in 5.0 mi NNW 11.5 mph 17.3 mph N/A Snow Light Snow
9:35 AM 14.0 °F 1.2 °F 6.8 °F 73% 30.35 in 2.5 mi NW 10.4 mph 19.6 mph N/A Snow Light Snow
9:55 AM 14.0 °F -0.2 °F 5.0 °F 67% 30.36 in 2.0 mi NNW 12.7 mph 18.4 mph N/A Snow Light Snow
10:15 AM 14.0 °F 0.5 °F 3.2 °F 62% 30.36 in 5.0 mi North 11.5 mph 18.4 mph N/A Snow Light Snow
10:35 AM 14.0 °F 2.9 °F 1.4 °F 57% 30.36 in 10.0 mi NW 8.1 mph 20.7 mph N/A   Overcast
10:55 AM 14.0 °F 3.9 °F 3.2 °F 62% 30.37 in 3.0 mi NNW 6.9 mph 18.4 mph N/A Snow Light Snow
11:15 AM 14.0 °F 0.5 °F 1.4 °F 57% 30.37 in 10.0 mi NW 11.5 mph 19.6 mph N/A   Mostly Cloudy
11:35 AM 14.0 °F 0.5 °F -0.4 °F 53% 30.36 in 10.0 mi NNW 11.5 mph 20.7 mph N/A   Mostly Cloudy
11:55 AM 15.8 °F 1.4 °F -0.4 °F 49% 30.35 in 10.0 mi NNW 13.8 mph 24.2 mph N/A   Mostly Cloudy
12:15 PM 14.0 °F 0.5 °F -0.4 °F 53% 30.35 in 10.0 mi NW 11.5 mph 23.0 mph N/A   Scattered Clouds
12:35 PM 15.8 °F 2.7 °F 1.4 °F 53% 30.34 in 10.0 mi NNW 11.5 mph 19.6 mph N/A   Mostly Cloudy
12:55 PM 14.0 °F 0.5 °F -0.4 °F 53% 30.34 in 10.0 mi North 11.5 mph 20.7 mph N/A   Mostly Cloudy
1:15 PM 15.8 °F 4.2 °F -0.4 °F 49% 30.35 in 10.0 mi NW 9.2 mph 20.7 mph N/A   Scattered Clouds
1:35 PM 17.6 °F 5.0 °F 1.4 °F 49% 30.34 in 10.0 mi NW 11.5 mph 20.7 mph N/A   Mostly Cloudy
1:55 PM 15.8 °F 3.4 °F 1.4 °F 53% 30.35 in 10.0 mi NW 10.4 mph 21.9 mph N/A   Overcast
2:15 PM 17.6 °F 3.7 °F -0.4 °F 45% 30.36 in 10.0 mi WNW 13.8 mph 19.6 mph N/A   Overcast
2:35 PM 15.8 °F 2.7 °F -0.4 °F 49% 30.36 in 10.0 mi WNW 11.5 mph 24.2 mph N/A   Mostly Cloudy
2:55 PM 15.8 °F 4.2 °F -2.2 °F 45% 30.36 in 10.0 mi NW 9.2 mph 19.6 mph N/A   Mostly Cloudy
3:15 PM 17.6 °F 5.7 °F -2.2 °F 42% 30.37 in 10.0 mi West 10.4 mph 16.1 mph N/A   Mostly Cloudy
3:35 PM 15.8 °F 3.4 °F -2.2 °F 45% 30.38 in 10.0 mi West 10.4 mph 24.2 mph N/A   Scattered Clouds
3:55 PM 15.8 °F 2.7 °F -2.2 °F 45% 30.38 in 10.0 mi West 11.5 mph 21.9 mph N/A   Scattered Clouds
4:15 PM 15.8 °F 0.9 °F -4.0 °F 41% 30.39 in 10.0 mi NW 15.0 mph 21.9 mph N/A   Scattered Clouds
4:35 PM 14.0 °F -0.2 °F -4.0 °F 45% 30.40 in 10.0 mi NW 12.7 mph 19.6 mph N/A   Clear
4:55 PM 14.0 °F 5.1 °F -4.0 °F 45% 30.41 in 10.0 mi NW 5.8 mph 17.3 mph N/A   Clear
5:15 PM 14.0 °F 3.9 °F -2.2 °F 49% 30.42 in 10.0 mi West 6.9 mph - N/A   Clear
5:35 PM 14.0 °F 2.0 °F -2.2 °F 49% 30.43 in 10.0 mi NW 9.2 mph - N/A   Clear
5:55 PM 14.0 °F 2.9 °F -2.2 °F 49% 30.43 in 10.0 mi WNW 8.1 mph - N/A   Partly Cloudy
6:15 PM 14.0 °F 5.1 °F -2.2 °F 49% 30.44 in 10.0 mi WNW 5.8 mph - N/A   Clear
6:35 PM 14.0 °F 2.9 °F -2.2 °F 49% 30.44 in 10.0 mi NW 8.1 mph - N/A   Clear
6:55 PM 12.2 °F 1.7 °F -2.2 °F 53% 30.45 in 10.0 mi WNW 6.9 mph - N/A   Clear
7:15 PM 12.2 °F 1.7 °F -2.2 °F 53% 30.46 in 10.0 mi NW 6.9 mph - N/A   Clear
7:35 PM 12.2 °F 1.7 °F -2.2 °F 53% 30.46 in 10.0 mi NW 6.9 mph - N/A   Clear
7:55 PM 12.2 °F 1.7 °F -2.2 °F 53% 30.47 in 10.0 mi NW 6.9 mph - N/A   Clear
8:15 PM 10.4 °F 2.2 °F -2.2 °F 57% 30.47 in 10.0 mi NW 4.6 mph - N/A   Clear
8:35 PM 10.4 °F -5.4 °F -4.0 °F 52% 30.48 in 10.0 mi WNW 13.8 mph 18.4 mph N/A   Clear
8:55 PM 10.4 °F -0.4 °F -4.0 °F 52% 30.50 in 10.0 mi NNW 6.9 mph 16.1 mph N/A   Clear
9:15 PM 10.4 °F 2.2 °F -2.2 °F 57% 30.50 in 10.0 mi NW 4.6 mph 16.1 mph N/A   Clear
9:35 PM 10.4 °F -1.5 °F -4.0 °F 52% 30.51 in 10.0 mi WNW 8.1 mph 17.3 mph N/A   Clear
9:55 PM 10.4 °F -0.4 °F -2.2 °F 57% 30.52 in 10.0 mi NNW 6.9 mph - N/A   Scattered Clouds
10:15 PM 10.4 °F -0.4 °F -2.2 °F 57% 30.53 in 10.0 mi NNW 6.9 mph - N/A   Scattered Clouds
10:35 PM 8.6 °F -4.7 °F -2.2 °F 62% 30.53 in 10.0 mi NW 9.2 mph - N/A   Partly Cloudy
10:55 PM 8.6 °F -3.7 °F -2.2 °F 62% 30.53 in 10.0 mi NNW 8.1 mph 23.0 mph N/A   Clear
11:15 PM 8.6 °F -6.3 °F -2.2 °F 62% 30.53 in 10.0 mi NNW 11.5 mph 19.6 mph N/A   Clear
11:35 PM 8.6 °F -2.6 °F -2.2 °F 62% 30.54 in 10.0 mi NNW 6.9 mph 17.3 mph N/A   Clear
11:55 PM 8.6 °F -1.3 °F -2.2 °F 62% 30.54 in 10.0 mi NW 5.8 mph - N/A   Clear